Home > Weather > Bogota > Past weeks

Flag for Colombia Weather for the Past 2 Weeks in Bogota, Colombia

Now
61 °F

Scattered showers. Scattered clouds.


Feels Like: 61 °F
Forecast: N/A
Wind: 14 mph from Southwest

Location: Bogota / Eldorado

Current Time: Apr 28, 2016 at 5:06:23 PM

Latest Report: Apr 28, 2016 at 4:00 PM


Visibility: N/A

Pressure: 30.26 "Hg (22.21 "Hg at 2618m altitude)

Humidity: 77%

Dew Point: 54 °F

Location of BogotaLocation

Historic Weather in Bogota — Graph

°F

Bogota Temperature Yesterday

Maximum temperature yesterday: 86 °F (at 1:00 PM)
Minimum temperature yesterday: 54 °F (at 5:00 AM)
Average temperature yesterday: 60 °F

High & Low Weather Summary for the Past Weeks

 TemperatureHumidityPressure
High86 °F (Apr 27, 1:00 PM)100% (Apr 14, 3:00 AM)30.46 "Hg (Apr 14, 3:00 AM)
Low45 °F (Apr 19, 5:00 AM)35% (Apr 27, 1:00 PM)29.84 "Hg (Apr 24, 6:00 AM)
Average59 °F76%30.32 "Hg
* Reported Apr 13 3:00 PM — Apr 28 3:00 PM, Bogota, Weather by CustomWeather, © 2016

Note: Actual official high and low records may vary slightly from our data, if they occured in-between our weather recording intervals... More about our weather records

Advertising

Bogota Weather History for the Previous 24 Hours

Scroll right to see more
 ConditionsComfort  
Time TempWeatherWind HumidityBarometerVisibility
3:00 PM
Thu, Apr 28
66 °FScattered clouds.6 mph60%30.28 "HgN/A
2:00 PM63 °FScattered showers. Scattered clouds.7 mph73%30.30 "Hg6 mi
1:00 PM61 °FScattered showers. Partly sunny.6 mph77%30.35 "Hg6 mi
12:00 PM64 °FScattered showers. Broken clouds.7 mph64%30.37 "HgN/A
11:00 AM61 °FScattered showers. Broken clouds.9 mph68%30.37 "HgN/A
10:00 AM64 °FBroken clouds.5 mph68%30.38 "HgN/A
9:00 AM59 °FScattered showers. Broken clouds.5 mph77%30.40 "HgN/A
8:00 AM57 °FBroken clouds.5 mph82%30.40 "HgN/A
7:00 AM55 °FScattered showers. Partly sunny.5 mph88%30.36 "HgN/A
6:00 AM52 °FScattered showers. Broken clouds.2 mph94%30.34 "HgN/A
5:00 AM52 °FPassing clouds.2 mph94%30.32 "HgN/A
4:00 AM50 °FPassing clouds.No wind94%30.30 "HgN/A
3:00 AM52 °FPartly cloudy.2 mph88%30.29 "HgN/A
2:00 AM52 °FPassing clouds.3 mph94%30.30 "HgN/A
1:00 AM54 °FPartly cloudy.No wind88%30.33 "HgN/A
12:00 AM55 °FPartly cloudy.2 mph94%30.34 "HgN/A
11:00 PM
Wed, Apr 27
57 °FPartly cloudy.2 mph82%30.36 "HgN/A
10:00 PM55 °FScattered showers. Partly cloudy.5 mph94%30.37 "Hg6 mi
9:00 PM55 °FThunderstorms. Passing clouds.5 mph94%30.35 "Hg2 mi
8:00 PM57 °FThunderstorms. Partly cloudy.5 mph88%30.32 "Hg3 mi
7:00 PM59 °FPassing clouds.3 mph88%30.27 "Hg6 mi
6:00 PM59 °FScattered clouds.7 mph88%30.23 "HgN/A
5:00 PM61 °FScattered clouds.9 mph83%30.22 "Hg5 mi
Weather by CustomWeather, © 2016

See weather overviewHow to use our weather pages